ALSAT 1B

Last updated on Thu Jan 15 2026 00:02:31 GMT+0000 (Coordinated Universal Time)

1 41785U 16059C 26014.56797331 .00000557 00000+0 95959-4 0 9997 2 41785 97.7812 29.9409 0009583 9.6436 350.4954 14.72117589497978

Satellite not in orbit

ALSAT 1B